Year,Month,Day,Hour,Minute,Value (Times are PST for temperature in C)
2006,08,23,00,00,12.30
2006,08,23,00,01,12.30
2006,08,23,00,02,12.30
2006,08,23,00,03,12.30
2006,08,23,00,04,12.30
2006,08,23,00,05,12.30
2006,08,23,00,06,12.30
2006,08,23,00,07,12.30
2006,08,23,00,08,12.20
2006,08,23,00,09,12.20
2006,08,23,00,10,12.10
2006,08,23,00,11,12.10
2006,08,23,00,12,12.10
2006,08,23,00,13,12.10
2006,08,23,00,14,12.00
2006,08,23,00,15,12.00
2006,08,23,00,16,12.00
2006,08,23,00,17,12.00
2006,08,23,00,18,11.90
2006,08,23,00,19,11.90
2006,08,23,00,20,11.90
2006,08,23,00,21,11.90
2006,08,23,00,22,11.80
2006,08,23,00,23,11.80
2006,08,23,00,24,11.80
2006,08,23,00,25,11.80
2006,08,23,00,26,11.80
2006,08,23,00,27,11.80
2006,08,23,00,28,11.80
2006,08,23,00,29,11.80
2006,08,23,00,30,11.80
2006,08,23,00,31,11.70
2006,08,23,00,32,11.70
2006,08,23,00,33,11.70
2006,08,23,00,34,11.70
2006,08,23,00,35,11.70
2006,08,23,00,36,11.70
2006,08,23,00,37,11.60
2006,08,23,00,38,11.60
2006,08,23,00,39,11.60
2006,08,23,00,40,11.60
2006,08,23,00,41,11.60
2006,08,23,00,42,11.60
2006,08,23,00,43,11.60
2006,08,23,00,44,11.40
2006,08,23,00,45,11.40
2006,08,23,00,46,11.40
2006,08,23,00,47,11.40
2006,08,23,00,48,11.40
2006,08,23,00,49,11.40
2006,08,23,00,50,11.40
2006,08,23,00,51,11.40
2006,08,23,00,52,11.40
2006,08,23,00,53,11.40
2006,08,23,00,54,11.40
2006,08,23,00,55,11.40
2006,08,23,00,56,11.40
2006,08,23,00,57,11.40
2006,08,23,00,58,11.40
2006,08,23,00,59,11.40
2006,08,23,01,00,11.40
2006,08,23,01,01,11.40
2006,08,23,01,02,11.40
2006,08,23,01,03,11.40
2006,08,23,01,04,11.40
2006,08,23,01,05,11.40
2006,08,23,01,06,11.40
2006,08,23,01,07,11.40
2006,08,23,01,08,11.40
2006,08,23,01,09,11.40
2006,08,23,01,10,11.40
2006,08,23,01,11,11.30
2006,08,23,01,12,11.30
2006,08,23,01,13,11.20
2006,08,23,01,14,11.20
2006,08,23,01,15,11.10
2006,08,23,01,16,11.10
2006,08,23,01,17,11.10
2006,08,23,01,18,11.10
2006,08,23,01,19,11.10
2006,08,23,01,20,11.10
2006,08,23,01,21,11.10
2006,08,23,01,22,11.10
2006,08,23,01,23,11.10
2006,08,23,01,24,11.10
2006,08,23,01,25,11.10
2006,08,23,01,26,11.10
2006,08,23,01,27,11.10
2006,08,23,01,28,11.10
2006,08,23,01,29,11.10
2006,08,23,01,30,11.10
2006,08,23,01,31,11.10
2006,08,23,01,32,11.10
2006,08,23,01,33,11.10
2006,08,23,01,34,11.10
2006,08,23,01,35,11.10
2006,08,23,01,36,11.10
2006,08,23,01,37,11.10
2006,08,23,01,38,11.10
2006,08,23,01,39,11.10
2006,08,23,01,40,11.10
2006,08,23,01,41,11.20
2006,08,23,01,42,11.20
2006,08,23,01,43,11.20
2006,08,23,01,44,11.20
2006,08,23,01,45,11.20
2006,08,23,01,46,11.20
2006,08,23,01,47,11.20
2006,08,23,01,48,11.10
2006,08,23,01,49,11.10
2006,08,23,01,50,11.10
2006,08,23,01,51,11.10
2006,08,23,01,52,11.10
2006,08,23,01,53,11.10
2006,08,23,01,54,11.10
2006,08,23,01,55,11.10
2006,08,23,01,56,11.10
2006,08,23,01,57,11.10
2006,08,23,01,58,11.10
2006,08,23,01,59,11.10
2006,08,23,02,00,11.10
2006,08,23,02,01,11.10
2006,08,23,02,02,10.90
2006,08,23,02,03,10.90
2006,08,23,02,04,10.90
2006,08,23,02,05,10.90
2006,08,23,02,06,10.90
2006,08,23,02,07,10.90
2006,08,23,02,08,10.90
2006,08,23,02,09,10.90
2006,08,23,02,10,10.90
2006,08,23,02,11,10.90
2006,08,23,02,12,10.90
2006,08,23,02,13,10.90
2006,08,23,02,14,10.90
2006,08,23,02,15,10.80
2006,08,23,02,16,10.80
2006,08,23,02,17,10.70
2006,08,23,02,18,10.70
2006,08,23,02,19,10.60
2006,08,23,02,20,10.60
2006,08,23,02,21,10.60
2006,08,23,02,22,10.60
2006,08,23,02,23,10.60
2006,08,23,02,24,10.60
2006,08,23,02,25,10.60
2006,08,23,02,26,10.60
2006,08,23,02,27,10.60
2006,08,23,02,28,10.60
2006,08,23,02,29,10.60
2006,08,23,02,30,10.60
2006,08,23,02,31,10.60
2006,08,23,02,32,10.60
2006,08,23,02,33,10.60
2006,08,23,02,34,10.60
2006,08,23,02,35,10.60
2006,08,23,02,36,10.60
2006,08,23,02,37,10.60
2006,08,23,02,38,10.60
2006,08,23,02,39,10.60
2006,08,23,02,40,10.60
2006,08,23,02,41,10.60
2006,08,23,02,42,10.60
2006,08,23,02,43,10.60
2006,08,23,02,44,10.60
2006,08,23,02,45,10.60
2006,08,23,02,46,10.60
2006,08,23,02,47,10.60
2006,08,23,02,48,10.60
2006,08,23,02,49,10.60
2006,08,23,02,50,10.60
2006,08,23,02,51,10.60
2006,08,23,02,52,10.50
2006,08,23,02,53,10.40
2006,08,23,02,54,10.40
2006,08,23,02,55,10.40
2006,08,23,02,56,10.40
2006,08,23,02,57,10.50
2006,08,23,02,58,10.60
2006,08,23,02,59,10.60
2006,08,23,03,00,10.60
2006,08,23,03,01,10.60
2006,08,23,03,02,10.60
2006,08,23,03,03,10.60
2006,08,23,03,04,10.60
2006,08,23,03,05,10.60
2006,08,23,03,06,10.60
2006,08,23,03,07,10.60
2006,08,23,03,08,10.60
2006,08,23,03,09,10.60
2006,08,23,03,10,10.60
2006,08,23,03,11,10.60
2006,08,23,03,12,10.60
2006,08,23,03,13,10.60
2006,08,23,03,14,10.70
2006,08,23,03,15,10.70
2006,08,23,03,16,10.70
2006,08,23,03,17,10.70
2006,08,23,03,18,10.70
2006,08,23,03,19,10.70
2006,08,23,03,20,10.60
2006,08,23,03,21,10.60
2006,08,23,03,22,10.60
2006,08,23,03,23,10.60
2006,08,23,03,24,10.60
2006,08,23,03,25,10.60
2006,08,23,03,26,10.40
2006,08,23,03,27,10.40
2006,08,23,03,28,10.40
2006,08,23,03,29,10.40
2006,08,23,03,30,10.40
2006,08,23,03,31,10.40
2006,08,23,03,32,10.30
2006,08,23,03,33,10.30
2006,08,23,03,34,10.30
2006,08,23,03,35,10.30
2006,08,23,03,36,10.30
2006,08,23,03,37,10.20
2006,08,23,03,38,10.20
2006,08,23,03,39,10.20
2006,08,23,03,40,10.20
2006,08,23,03,41,10.20
2006,08,23,03,42,10.20
2006,08,23,03,43,10.10
2006,08,23,03,44,10.10
2006,08,23,03,45,10.10
2006,08,23,03,46,10.10
2006,08,23,03,47,10.10
2006,08,23,03,48,10.10
2006,08,23,03,49,10.10
2006,08,23,03,50,10.00
2006,08,23,03,51,9.90
2006,08,23,03,52,9.90
2006,08,23,03,53,9.90
2006,08,23,03,54,9.90
2006,08,23,03,55,9.90
2006,08,23,03,56,9.90
2006,08,23,03,57,9.90
2006,08,23,03,58,9.90
2006,08,23,03,59,9.90
2006,08,23,04,00,9.90
2006,08,23,04,01,9.90
2006,08,23,04,02,9.90
2006,08,23,04,03,9.90
2006,08,23,04,04,9.80
2006,08,23,04,05,9.80
2006,08,23,04,06,9.80
2006,08,23,04,07,9.80
2006,08,23,04,08,9.80
2006,08,23,04,09,9.80
2006,08,23,04,10,9.80
2006,08,23,04,11,9.80
2006,08,23,04,12,9.80
2006,08,23,04,13,9.90
2006,08,23,04,14,9.90
2006,08,23,04,15,9.90
2006,08,23,04,16,9.90
2006,08,23,04,17,9.90
2006,08,23,04,18,9.90
2006,08,23,04,19,9.90
2006,08,23,04,20,9.90
2006,08,23,04,21,9.90
2006,08,23,04,22,9.90
2006,08,23,04,23,9.90
2006,08,23,04,24,9.90
2006,08,23,04,25,9.90
2006,08,23,04,26,9.80
2006,08,23,04,27,9.80
2006,08,23,04,28,9.80
2006,08,23,04,29,9.70
2006,08,23,04,30,9.70
2006,08,23,04,31,9.70
2006,08,23,04,32,9.70
2006,08,23,04,33,9.60
2006,08,23,04,34,9.60
2006,08,23,04,35,9.60
2006,08,23,04,36,9.50
2006,08,23,04,37,9.50
2006,08,23,04,38,9.50
2006,08,23,04,39,9.50
2006,08,23,04,40,9.50
2006,08,23,04,41,9.50
2006,08,23,04,42,9.50
2006,08,23,04,43,9.50
2006,08,23,04,44,9.50
2006,08,23,04,45,9.50
2006,08,23,04,46,9.50
2006,08,23,04,47,9.50
2006,08,23,04,48,9.40
2006,08,23,04,49,9.40
2006,08,23,04,50,9.40
2006,08,23,04,51,9.40
2006,08,23,04,52,9.40
2006,08,23,04,53,9.40
2006,08,23,04,54,9.40
2006,08,23,04,55,9.40
2006,08,23,04,56,9.40
2006,08,23,04,57,9.40
2006,08,23,04,58,9.40
2006,08,23,04,59,9.50
2006,08,23,05,00,9.50
2006,08,23,05,01,9.50
2006,08,23,05,02,9.50
2006,08,23,05,03,9.50
2006,08,23,05,04,9.50
2006,08,23,05,05,9.50
2006,08,23,05,06,9.40
2006,08,23,05,07,9.40
2006,08,23,05,08,9.40
2006,08,23,05,09,9.40
2006,08,23,05,10,9.40
2006,08,23,05,11,9.30
2006,08,23,05,12,9.30
2006,08,23,05,13,9.20
2006,08,23,05,14,9.20
2006,08,23,05,15,9.20
2006,08,23,05,16,9.20
2006,08,23,05,17,9.20
2006,08,23,05,18,9.20
2006,08,23,05,19,9.10
2006,08,23,05,20,9.10
2006,08,23,05,21,9.10
2006,08,23,05,22,9.10
2006,08,23,05,23,9.10
2006,08,23,05,24,9.10
2006,08,23,05,25,9.10
2006,08,23,05,26,9.10
2006,08,23,05,27,9.10
2006,08,23,05,28,9.20
2006,08,23,05,29,9.20
2006,08,23,05,30,9.10
2006,08,23,05,31,9.20
2006,08,23,05,32,9.20
2006,08,23,05,33,9.10
2006,08,23,05,34,9.10
2006,08,23,05,35,9.10
2006,08,23,05,36,9.10
2006,08,23,05,37,9.10
2006,08,23,05,38,9.10
2006,08,23,05,39,9.10
2006,08,23,05,40,9.10
2006,08,23,05,41,9.00
2006,08,23,05,42,9.00
2006,08,23,05,43,9.00
2006,08,23,05,44,8.90
2006,08,23,05,45,8.90
2006,08,23,05,46,8.90
2006,08,23,05,47,8.90
2006,08,23,05,48,8.90
2006,08,23,05,49,8.90
2006,08,23,05,50,8.90
2006,08,23,05,51,8.90
2006,08,23,05,52,8.90
2006,08,23,05,53,8.90
2006,08,23,05,54,8.90
2006,08,23,05,55,8.90
2006,08,23,05,56,8.90
2006,08,23,05,57,8.90
2006,08,23,05,58,8.90
2006,08,23,05,59,8.90
2006,08,23,06,00,8.90
2006,08,23,06,01,8.90
2006,08,23,06,02,8.90
2006,08,23,06,03,8.90
2006,08,23,06,04,8.90
2006,08,23,06,05,8.90
2006,08,23,06,06,8.90
2006,08,23,06,07,8.90
2006,08,23,06,08,8.90
2006,08,23,06,09,8.90
2006,08,23,06,10,8.90
2006,08,23,06,11,8.90
2006,08,23,06,12,8.90
2006,08,23,06,13,8.90
2006,08,23,06,14,8.90
2006,08,23,06,15,8.80
2006,08,23,06,16,8.80
2006,08,23,06,17,8.80
2006,08,23,06,18,8.80
2006,08,23,06,19,8.80
2006,08,23,06,20,8.80
2006,08,23,06,21,8.80
2006,08,23,06,22,8.80
2006,08,23,06,23,8.80
2006,08,23,06,24,8.80
2006,08,23,06,25,8.80
2006,08,23,06,26,8.80
2006,08,23,06,27,8.80
2006,08,23,06,28,8.80
2006,08,23,06,29,8.70
2006,08,23,06,30,8.70
2006,08,23,06,31,8.70
2006,08,23,06,32,8.70
2006,08,23,06,33,8.70
2006,08,23,06,34,8.70
2006,08,23,06,35,8.60
2006,08,23,06,36,8.60
2006,08,23,06,37,8.60
2006,08,23,06,38,8.70
2006,08,23,06,39,8.70
2006,08,23,06,40,8.70
2006,08,23,06,41,8.80
2006,08,23,06,42,8.90
2006,08,23,06,43,8.90
2006,08,23,06,44,8.90
2006,08,23,06,45,9.00
2006,08,23,06,46,9.00
2006,08,23,06,47,9.00
2006,08,23,06,48,9.00
2006,08,23,06,49,9.10
2006,08,23,06,50,9.10
2006,08,23,06,51,9.10
2006,08,23,06,52,9.10
2006,08,23,06,53,9.10
2006,08,23,06,54,9.10
2006,08,23,06,55,9.10
2006,08,23,06,56,9.10
2006,08,23,06,57,9.00
2006,08,23,06,58,9.00
2006,08,23,06,59,8.90
2006,08,23,07,00,8.90
2006,08,23,07,01,8.90
2006,08,23,07,02,8.90
2006,08,23,07,03,8.90
2006,08,23,07,04,9.00
2006,08,23,07,05,9.00
2006,08,23,07,06,9.10
2006,08,23,07,07,9.10
2006,08,23,07,08,9.20
2006,08,23,07,09,9.20
2006,08,23,07,10,9.20
2006,08,23,07,11,9.30
2006,08,23,07,12,9.30
2006,08,23,07,13,9.30
2006,08,23,07,14,9.40
2006,08,23,07,15,9.40
2006,08,23,07,16,9.40
2006,08,23,07,17,9.40
2006,08,23,07,18,9.50
2006,08,23,07,19,9.50
2006,08,23,07,20,9.50
2006,08,23,07,21,9.50
2006,08,23,07,22,9.50
2006,08,23,07,23,9.60
2006,08,23,07,24,9.60
2006,08,23,07,25,9.60
2006,08,23,07,26,9.60
2006,08,23,07,27,9.60
2006,08,23,07,28,9.70
2006,08,23,07,29,9.70
2006,08,23,07,30,9.70
2006,08,23,07,31,9.70
2006,08,23,07,32,9.70
2006,08,23,07,33,9.70
2006,08,23,07,34,9.70
2006,08,23,07,35,9.80
2006,08,23,07,36,9.90
2006,08,23,07,37,9.90
2006,08,23,07,38,10.00
2006,08,23,07,39,10.10
2006,08,23,07,40,10.10
2006,08,23,07,41,10.20
2006,08,23,07,42,10.30
2006,08,23,07,43,10.40
2006,08,23,07,44,10.60
2006,08,23,07,45,10.60
2006,08,23,07,46,10.70
2006,08,23,07,47,10.90
2006,08,23,07,48,11.00
2006,08,23,07,49,11.20
2006,08,23,07,50,11.30
2006,08,23,07,51,11.50
2006,08,23,07,52,11.70
2006,08,23,07,53,11.80
2006,08,23,07,54,12.00
2006,08,23,07,55,12.20
2006,08,23,07,56,12.40
2006,08,23,07,57,12.50
2006,08,23,07,58,12.70
2006,08,23,07,59,12.90
2006,08,23,08,00,13.00
2006,08,23,08,01,13.00
2006,08,23,08,02,13.10
2006,08,23,08,03,13.10
2006,08,23,08,04,13.10
2006,08,23,08,05,13.10
2006,08,23,08,06,13.20
2006,08,23,08,07,13.20
2006,08,23,08,08,13.20
2006,08,23,08,09,13.30
2006,08,23,08,10,13.30
2006,08,23,08,11,13.30
2006,08,23,08,12,13.30
2006,08,23,08,13,13.30
2006,08,23,08,14,13.40
2006,08,23,08,15,13.50
2006,08,23,08,16,13.50
2006,08,23,08,17,13.60
2006,08,23,08,18,13.70
2006,08,23,08,19,13.70
2006,08,23,08,20,13.70
2006,08,23,08,21,13.80
2006,08,23,08,22,13.90
2006,08,23,08,23,13.90
2006,08,23,08,24,14.00
2006,08,23,08,25,14.20
2006,08,23,08,26,14.40
2006,08,23,08,27,14.60
2006,08,23,08,28,14.70
2006,08,23,08,29,14.80
2006,08,23,08,30,14.90
2006,08,23,08,31,15.00
2006,08,23,08,32,15.10
2006,08,23,08,33,15.10
2006,08,23,08,34,15.20
2006,08,23,08,35,15.20
2006,08,23,08,36,15.30
2006,08,23,08,37,15.30
2006,08,23,08,38,15.30
2006,08,23,08,39,15.30
2006,08,23,08,40,15.30
2006,08,23,08,41,15.30
2006,08,23,08,42,15.30
2006,08,23,08,43,15.30
2006,08,23,08,44,15.30
2006,08,23,08,45,15.30
2006,08,23,08,46,15.30
2006,08,23,08,47,15.30
2006,08,23,08,48,15.30
2006,08,23,08,49,15.30
2006,08,23,08,50,15.40
2006,08,23,08,51,15.40
2006,08,23,08,52,15.50
2006,08,23,08,53,15.50
2006,08,23,08,54,15.60
2006,08,23,08,55,15.70
2006,08,23,08,56,15.80
2006,08,23,08,57,15.90
2006,08,23,08,58,16.10
2006,08,23,08,59,16.20
2006,08,23,09,00,16.40
2006,08,23,09,01,16.60
2006,08,23,09,02,16.70
2006,08,23,09,03,16.80
2006,08,23,09,04,16.90
2006,08,23,09,05,17.00
2006,08,23,09,06,17.10
2006,08,23,09,07,17.20
2006,08,23,09,08,17.30
2006,08,23,09,09,17.30
2006,08,23,09,10,17.30
2006,08,23,09,11,17.30
2006,08,23,09,12,17.40
2006,08,23,09,13,17.50
2006,08,23,09,14,17.60
2006,08,23,09,15,17.60
2006,08,23,09,16,17.70
2006,08,23,09,17,17.70
2006,08,23,09,18,17.70
2006,08,23,09,19,17.70
2006,08,23,09,20,17.80
2006,08,23,09,21,17.80
2006,08,23,09,22,17.90
2006,08,23,09,23,17.90
2006,08,23,09,24,17.90
2006,08,23,09,25,17.80
2006,08,23,09,26,17.70
2006,08,23,09,27,17.70
2006,08,23,09,28,17.80
2006,08,23,09,29,17.90
2006,08,23,09,30,17.90
2006,08,23,09,31,17.90
2006,08,23,09,32,17.90
2006,08,23,09,33,17.90
2006,08,23,09,34,17.90
2006,08,23,09,35,17.90
2006,08,23,09,36,17.90
2006,08,23,09,37,18.00
2006,08,23,09,38,18.10
2006,08,23,09,39,18.20
2006,08,23,09,40,18.20
2006,08,23,09,41,18.30
2006,08,23,09,42,18.30
2006,08,23,09,43,18.40
2006,08,23,09,44,18.40
2006,08,23,09,45,18.40
2006,08,23,09,46,18.30
2006,08,23,09,47,18.30
2006,08,23,09,48,18.30
2006,08,23,09,49,18.40
2006,08,23,09,50,18.40
2006,08,23,09,51,18.50
2006,08,23,09,52,18.50
2006,08,23,09,53,18.50
2006,08,23,09,54,18.40
2006,08,23,09,55,18.40
2006,08,23,09,56,18.40
2006,08,23,09,57,18.40
2006,08,23,09,58,18.40
2006,08,23,09,59,18.30
2006,08,23,10,00,18.40
2006,08,23,10,01,18.50
2006,08,23,10,02,18.50
2006,08,23,10,03,18.60
2006,08,23,10,04,18.60
2006,08,23,10,05,18.70
2006,08,23,10,06,18.70
2006,08,23,10,07,18.70
2006,08,23,10,08,18.80
2006,08,23,10,09,18.80
2006,08,23,10,10,18.90
2006,08,23,10,11,18.80
2006,08,23,10,12,18.70
2006,08,23,10,13,18.70
2006,08,23,10,14,18.70
2006,08,23,10,15,18.70
2006,08,23,10,16,18.70
2006,08,23,10,17,18.80
2006,08,23,10,18,18.90
2006,08,23,10,19,18.90
2006,08,23,10,20,18.90
2006,08,23,10,21,18.90
2006,08,23,10,22,19.00
2006,08,23,10,23,19.10
2006,08,23,10,24,19.10
2006,08,23,10,25,19.10
2006,08,23,10,26,19.20
2006,08,23,10,27,19.20
2006,08,23,10,28,19.30
2006,08,23,10,29,19.30
2006,08,23,10,30,19.20
2006,08,23,10,31,19.10
2006,08,23,10,32,19.10
2006,08,23,10,33,19.10
2006,08,23,10,34,19.10
2006,08,23,10,35,19.10
2006,08,23,10,36,19.20
2006,08,23,10,37,19.20
2006,08,23,10,38,19.30
2006,08,23,10,39,19.40
2006,08,23,10,40,19.50
2006,08,23,10,41,19.60
2006,08,23,10,42,19.70
2006,08,23,10,43,19.70
2006,08,23,10,44,19.70
2006,08,23,10,45,19.70
2006,08,23,10,46,19.70
2006,08,23,10,47,19.70
2006,08,23,10,48,19.60
2006,08,23,10,49,19.50
2006,08,23,10,50,19.50
2006,08,23,10,51,19.50
2006,08,23,10,52,19.60
2006,08,23,10,53,19.60
2006,08,23,10,54,19.70
2006,08,23,10,55,19.90
2006,08,23,10,56,19.90
2006,08,23,10,57,19.90
2006,08,23,10,58,19.90
2006,08,23,10,59,19.90
2006,08,23,11,00,20.00
2006,08,23,11,01,20.10
2006,08,23,11,02,20.30
2006,08,23,11,03,20.50
2006,08,23,11,04,20.70
2006,08,23,11,05,20.80
2006,08,23,11,06,20.80
2006,08,23,11,07,20.60
2006,08,23,11,08,20.50
2006,08,23,11,09,20.40
2006,08,23,11,10,20.40
2006,08,23,11,11,20.40
2006,08,23,11,12,20.40
2006,08,23,11,13,20.40
2006,08,23,11,14,20.40
2006,08,23,11,15,20.50
2006,08,23,11,16,20.60
2006,08,23,11,17,20.60
2006,08,23,11,18,20.70
2006,08,23,11,19,20.70
2006,08,23,11,20,20.70
2006,08,23,11,21,20.70
2006,08,23,11,22,20.80
2006,08,23,11,23,20.80
2006,08,23,11,24,20.80
2006,08,23,11,25,20.70
2006,08,23,11,26,20.60
2006,08,23,11,27,20.50
2006,08,23,11,28,20.40
2006,08,23,11,29,20.50
2006,08,23,11,30,20.50
2006,08,23,11,31,20.60
2006,08,23,11,32,20.50
2006,08,23,11,33,20.50
2006,08,23,11,34,20.30
2006,08,23,11,35,20.20
2006,08,23,11,36,20.30
2006,08,23,11,37,20.40
2006,08,23,11,38,20.50
2006,08,23,11,39,20.70
2006,08,23,11,40,20.80
2006,08,23,11,41,20.90
2006,08,23,11,42,20.90
2006,08,23,11,43,20.80
2006,08,23,11,44,20.70
2006,08,23,11,45,20.70
2006,08,23,11,46,20.60
2006,08,23,11,47,20.50
2006,08,23,11,48,20.70
2006,08,23,11,49,20.80
2006,08,23,11,50,20.80
2006,08,23,11,51,20.90
2006,08,23,11,52,21.10
2006,08,23,11,53,21.00
2006,08,23,11,54,20.90
2006,08,23,11,55,20.70
2006,08,23,11,56,20.60
2006,08,23,11,57,20.80
2006,08,23,11,58,20.90
2006,08,23,11,59,21.00
2006,08,23,12,00,21.00
2006,08,23,12,01,21.00
2006,08,23,12,02,21.00
2006,08,23,12,03,21.00
2006,08,23,12,04,21.00
2006,08,23,12,05,21.00
2006,08,23,12,06,20.90
2006,08,23,12,07,20.90
2006,08,23,12,08,20.80
2006,08,23,12,09,20.80
2006,08,23,12,10,20.90
2006,08,23,12,11,20.80
2006,08,23,12,12,20.70
2006,08,23,12,13,20.80
2006,08,23,12,14,20.90
2006,08,23,12,15,20.90
2006,08,23,12,16,20.90
2006,08,23,12,17,20.90
2006,08,23,12,18,21.00
2006,08,23,12,19,21.00
2006,08,23,12,20,20.90
2006,08,23,12,21,20.90
2006,08,23,12,22,20.90
2006,08,23,12,23,20.90
2006,08,23,12,24,20.90
2006,08,23,12,25,21.00
2006,08,23,12,26,21.00
2006,08,23,12,27,21.00
2006,08,23,12,28,20.90
2006,08,23,12,29,21.00
2006,08,23,12,30,21.00
2006,08,23,12,31,21.00
2006,08,23,12,32,21.00
2006,08,23,12,33,21.00
2006,08,23,12,34,21.00
2006,08,23,12,35,21.10
2006,08,23,12,36,21.10
2006,08,23,12,37,21.10
2006,08,23,12,38,21.30
2006,08,23,12,39,21.40
2006,08,23,12,40,21.20
2006,08,23,12,41,21.10
2006,08,23,12,42,21.10
2006,08,23,12,43,21.00
2006,08,23,12,44,21.10
2006,08,23,12,45,21.20
2006,08,23,12,46,21.10
2006,08,23,12,47,21.10
2006,08,23,12,48,21.00
2006,08,23,12,49,21.00
2006,08,23,12,50,21.00
2006,08,23,12,51,21.10
2006,08,23,12,52,21.20
2006,08,23,12,53,21.30
2006,08,23,12,54,21.30
2006,08,23,12,55,21.30
2006,08,23,12,56,21.20
2006,08,23,12,57,21.10
2006,08,23,12,58,21.00
2006,08,23,12,59,20.90
2006,08,23,13,00,20.80
2006,08,23,13,01,20.70
2006,08,23,13,02,20.70
2006,08,23,13,03,20.80
2006,08,23,13,04,20.80
2006,08,23,13,05,20.90
2006,08,23,13,06,20.80
2006,08,23,13,07,20.70
2006,08,23,13,08,20.80
2006,08,23,13,09,20.90
2006,08,23,13,10,20.80
2006,08,23,13,11,20.60
2006,08,23,13,12,20.50
2006,08,23,13,13,20.40
2006,08,23,13,14,20.20
2006,08,23,13,15,20.10
2006,08,23,13,16,19.90
2006,08,23,13,17,19.90
2006,08,23,13,18,19.90
2006,08,23,13,19,19.80
2006,08,23,13,20,19.80
2006,08,23,13,21,19.90
2006,08,23,13,22,19.80
2006,08,23,13,23,19.80
2006,08,23,13,24,20.00
2006,08,23,13,25,20.10
2006,08,23,13,26,20.10
2006,08,23,13,27,20.10
2006,08,23,13,28,20.10
2006,08,23,13,29,19.90
2006,08,23,13,30,20.00
2006,08,23,13,31,20.00
2006,08,23,13,32,19.90
2006,08,23,13,33,19.90
2006,08,23,13,34,19.80
2006,08,23,13,35,19.60
2006,08,23,13,36,19.60
2006,08,23,13,37,19.60
2006,08,23,13,38,19.70
2006,08,23,13,39,19.70
2006,08,23,13,40,19.70
2006,08,23,13,41,19.80
2006,08,23,13,42,19.70
2006,08,23,13,43,19.60
2006,08,23,13,44,19.70
2006,08,23,13,45,19.70
2006,08,23,13,46,19.70
2006,08,23,13,47,19.80
2006,08,23,13,48,19.90
2006,08,23,13,49,20.00
2006,08,23,13,50,19.90
2006,08,23,13,51,19.80
2006,08,23,13,52,19.50
2006,08,23,13,53,19.40
2006,08,23,13,54,19.30
2006,08,23,13,55,19.10
2006,08,23,13,56,19.10
2006,08,23,13,57,19.00
2006,08,23,13,58,19.10
2006,08,23,13,59,19.10
2006,08,23,14,00,19.00
2006,08,23,14,01,18.90
2006,08,23,14,02,18.90
2006,08,23,14,03,18.90
2006,08,23,14,04,18.90
2006,08,23,14,05,19.00
2006,08,23,14,06,19.10
2006,08,23,14,07,19.40
2006,08,23,14,08,19.50
2006,08,23,14,09,19.40
2006,08,23,14,10,19.20
2006,08,23,14,11,19.20
2006,08,23,14,12,19.30
2006,08,23,14,13,19.20
2006,08,23,14,14,19.00
2006,08,23,14,15,18.80
2006,08,23,14,16,18.80
2006,08,23,14,17,18.70
2006,08,23,14,18,18.60
2006,08,23,14,19,18.50
2006,08,23,14,20,18.60
2006,08,23,14,21,18.70
2006,08,23,14,22,18.80
2006,08,23,14,23,18.90
2006,08,23,14,24,19.00
2006,08,23,14,25,19.10
2006,08,23,14,26,19.30
2006,08,23,14,27,19.30
2006,08,23,14,28,19.40
2006,08,23,14,29,19.30
2006,08,23,14,30,19.40
2006,08,23,14,31,19.50
2006,08,23,14,32,19.60
2006,08,23,14,33,19.60
2006,08,23,14,34,19.60
2006,08,23,14,35,19.60
2006,08,23,14,36,19.50
2006,08,23,14,37,19.50
2006,08,23,14,38,19.50
2006,08,23,14,39,19.60
2006,08,23,14,40,19.80
2006,08,23,14,41,19.90
2006,08,23,14,42,19.90
2006,08,23,14,43,19.90
2006,08,23,14,44,19.90
2006,08,23,14,45,19.90
2006,08,23,14,46,19.90
2006,08,23,14,47,19.90
2006,08,23,14,48,19.80
2006,08,23,14,49,19.70
2006,08,23,14,50,19.80
2006,08,23,14,51,19.80
2006,08,23,14,52,20.00
2006,08,23,14,53,20.20
2006,08,23,14,54,20.30
2006,08,23,14,55,20.50
2006,08,23,14,56,20.50
2006,08,23,14,57,20.30
2006,08,23,14,58,20.30
2006,08,23,14,59,20.30
2006,08,23,15,00,20.30
2006,08,23,15,01,20.20
2006,08,23,15,02,20.20
2006,08,23,15,03,20.10
2006,08,23,15,04,20.10
2006,08,23,15,05,20.20
2006,08,23,15,06,20.20
2006,08,23,15,07,20.30
2006,08,23,15,08,20.30
2006,08,23,15,09,20.40
2006,08,23,15,10,20.30
2006,08,23,15,11,20.20
2006,08,23,15,12,20.20
2006,08,23,15,13,20.20
2006,08,23,15,14,20.10
2006,08,23,15,15,20.10
2006,08,23,15,16,20.10
2006,08,23,15,17,20.10
2006,08,23,15,18,20.00
2006,08,23,15,19,19.90
2006,08,23,15,20,19.90
2006,08,23,15,21,19.90
2006,08,23,15,22,19.80
2006,08,23,15,23,19.70
2006,08,23,15,24,19.70
2006,08,23,15,25,19.80
2006,08,23,15,26,19.90
2006,08,23,15,27,19.90
2006,08,23,15,28,19.90
2006,08,23,15,29,19.80
2006,08,23,15,30,19.70
2006,08,23,15,31,19.90
2006,08,23,15,32,19.90
2006,08,23,15,33,19.80
2006,08,23,15,34,19.70
2006,08,23,15,35,19.50
2006,08,23,15,36,19.50
2006,08,23,15,37,19.40
2006,08,23,15,38,19.40
2006,08,23,15,39,19.30
2006,08,23,15,40,19.30
2006,08,23,15,41,19.40
2006,08,23,15,42,19.50
2006,08,23,15,43,19.60
2006,08,23,15,44,19.60
2006,08,23,15,45,19.50
2006,08,23,15,46,19.50
2006,08,23,15,47,19.50
2006,08,23,15,48,19.40
2006,08,23,15,49,19.30
2006,08,23,15,50,19.40
2006,08,23,15,51,19.40
2006,08,23,15,52,19.50
2006,08,23,15,53,19.50
2006,08,23,15,54,19.70
2006,08,23,15,55,19.80
2006,08,23,15,56,19.90
2006,08,23,15,57,20.00
2006,08,23,15,58,20.20
2006,08,23,15,59,20.20
2006,08,23,16,00,20.20
2006,08,23,16,01,20.20
2006,08,23,16,02,20.10
2006,08,23,16,03,20.20
2006,08,23,16,04,20.20
2006,08,23,16,05,20.30
2006,08,23,16,06,20.30
2006,08,23,16,07,20.30
2006,08,23,16,08,20.30
2006,08,23,16,09,20.40
2006,08,23,16,10,20.50
2006,08,23,16,11,20.40
2006,08,23,16,12,20.40
2006,08,23,16,13,20.40
2006,08,23,16,14,20.40
2006,08,23,16,15,20.20
2006,08,23,16,16,20.20
2006,08,23,16,17,20.20
2006,08,23,16,18,20.30
2006,08,23,16,19,20.40
2006,08,23,16,20,20.50
2006,08,23,16,21,20.50
2006,08,23,16,22,20.60
2006,08,23,16,23,20.70
2006,08,23,16,24,20.70
2006,08,23,16,25,20.70
2006,08,23,16,26,20.80
2006,08,23,16,27,20.80
2006,08,23,16,28,20.90
2006,08,23,16,29,20.90
2006,08,23,16,30,20.80
2006,08,23,16,31,20.80
2006,08,23,16,32,20.80
2006,08,23,16,33,20.80
2006,08,23,16,34,20.80
2006,08,23,16,35,20.80
2006,08,23,16,36,20.80
2006,08,23,16,37,20.70
2006,08,23,16,38,20.60
2006,08,23,16,39,20.70
2006,08,23,16,40,20.70
2006,08,23,16,41,20.80
2006,08,23,16,42,20.90
2006,08,23,16,43,20.90
2006,08,23,16,44,20.90
2006,08,23,16,45,20.90
2006,08,23,16,46,20.80
2006,08,23,16,47,20.80
2006,08,23,16,48,20.70
2006,08,23,16,49,20.60
2006,08,23,16,50,20.40
2006,08,23,16,51,20.30
2006,08,23,16,52,20.30
2006,08,23,16,53,20.40
2006,08,23,16,54,20.40
2006,08,23,16,55,20.30
2006,08,23,16,56,20.30
2006,08,23,16,57,20.30
2006,08,23,16,58,20.20
2006,08,23,16,59,20.20
2006,08,23,17,00,20.20
2006,08,23,17,01,20.30
2006,08,23,17,02,20.30
2006,08,23,17,03,20.40
2006,08,23,17,04,20.40
2006,08,23,17,05,20.40
2006,08,23,17,06,20.50
2006,08,23,17,07,20.50
2006,08,23,17,08,20.50
2006,08,23,17,09,20.50
2006,08,23,17,10,20.50
2006,08,23,17,11,20.50
2006,08,23,17,12,20.50
2006,08,23,17,13,20.50
2006,08,23,17,14,20.40
2006,08,23,17,15,20.40
2006,08,23,17,16,20.40
2006,08,23,17,17,20.40
2006,08,23,17,18,20.40
2006,08,23,17,19,20.40
2006,08,23,17,20,20.40
2006,08,23,17,21,20.50
2006,08,23,17,22,20.50
2006,08,23,17,23,20.30
2006,08,23,17,24,20.30
2006,08,23,17,25,20.30
2006,08,23,17,26,20.30
2006,08,23,17,27,20.30
2006,08,23,17,28,20.30
2006,08,23,17,29,20.40